EW4392 Weather Reports


time (UTC)temp
C
wind
direction
speed
KPH
gust
KPH
rain 1hr
cm
rain 24hr
cm
rain mn
cm
humidity
%
barometer
mb
20260504044543 8 315 0.0 3.2 0.00 0.00 0.00 58 1015.9
20260504043048 8 348 0.0 3.2 0.00 0.00 0.00 61 1015.8
20260504041543 8 355 0.0 1.6 0.00 0.00 0.00 60 1015.8
20260504040040 9 118 0.0 1.6 0.00 0.00 0.00 57 1015.9
20260504034544 9 346 0.0 1.6 0.00 0.00 0.00 55 1015.8
20260504033034 8 336 0.0 1.6 0.00 0.00 0.00 54 1015.9
20260504031534 8 45 0.0 1.6 0.00 0.00 0.00 56 1015.8
20260504030035 9 45 0.0 1.6 0.00 0.00 0.00 55 1015.9
20260504024532 9 320 0.0 3.2 0.00 0.00 0.00 53 1015.8
20260504023032 9 348 0.0 0.0 0.00 0.00 0.00 52 1016.0
20260504021530 10 357 0.0 1.6 0.00 0.00 0.00 53 1015.5
20260504020036 11 116 0.0 1.6 0.00 0.00 0.00 47 1015.6
20260504014532 11 330 0.0 1.6 0.00 0.00 0.00 46 1015.5
20260504013035 11 330 0.0 1.6 0.00 0.00 0.00 48 1015.2
20260504011529 12 323 0.0 0.0 0.00 0.00 0.00 42 1015.0
20260504010029 13 327 0.0 1.6 0.00 0.00 0.00 35 1014.8
20260504004529 12 318 0.0 1.6 0.00 0.00 0.00 39 1014.7
20260504003028 12 326 0.0 1.6 0.00 0.00 0.00 43 1014.6
20260504001534 13 334 0.0 1.6 0.00 0.00 0.00 39 1014.7
20260504000027 14 321 0.0 3.2 0.00 0.00 0.00 35 1014.7
20260503234529 15 298 0.0 3.2 0.00 0.00 0.00 31 1014.6
20260503233026 15 306 0.0 4.8 0.00 0.00 0.00 32 1014.6
20260503231528 16 223 0.0 12.9 0.00 0.00 0.00 31 1014.6
20260503230036 16 291 0.0 6.4 0.00 0.00 0.00 31 1014.4
20260503224524 16 177 0.0 8.0 0.00 0.00 0.00 32 1014.5
20260503223024 16 288 1.6 8.0 0.00 0.00 0.00 34 1014.5
20260503221524 17 320 0.0 6.4 0.00 0.00 0.00 28 1014.6
20260503220022 17 228 3.2 9.7 0.00 0.00 0.00 30 1014.8
20260503214535 17 91 0.0 12.9 0.00 0.00 0.00 31 1014.8
20260503213021 17 120 1.6 8.0 0.00 0.00 0.00 29 1014.8
20260503211519 17 242 3.2 16.1 0.00 0.00 0.00 30 1014.9
20260503210019 17 264 1.6 9.7 0.00 0.00 0.00 27 1015.1
20260503204518 17 201 1.6 14.5 0.00 0.00 0.00 29 1015.0
20260503203017 17 318 1.6 8.0 0.00 0.00 0.00 31 1015.2
20260503201516 16 233 1.6 16.1 0.00 0.00 0.00 33 1015.4
20260503200015 17 148 3.2 11.3 0.00 0.00 0.00 27 1015.7
20260503194513 16 32 6.4 14.5 0.00 0.00 0.00 29 1016.0
20260503193021 16 84 0.0 14.5 0.00 0.00 0.00 29 1016.1
20260503191522 16 87 1.6 22.5 0.00 0.00 0.00 32 1016.3
20260503190016 16 136 1.6 12.9 0.00 0.00 0.00 33 1016.6
20260503184506 15 154 1.6 20.9 0.00 0.00 0.00 35 1017.0
20260503183005 15 190 3.2 14.5 0.00 0.00 0.00 37 1017.2
20260503181501 15 217 3.2 12.9 0.00 0.00 0.00 36 1017.4
20260503180005 15 116 4.8 20.9 0.00 0.00 0.00 37 1017.5
20260503174604 14 278 0.0 16.1 0.00 0.00 0.00 38 1017.7
20260503173105 13 298 1.6 9.7 0.00 0.00 0.00 38 1017.8
20260503171557 14 114 1.6 19.3 0.00 0.00 0.00 40 1018.2
20260503170113 14 79 6.4 16.1 0.00 0.00 0.00 36 1018.3
20260503160104 12 116 3.2 14.5 0.00 0.00 0.00 41 1019.0
20260503081552 6 320 0.0 11.3 0.00 0.00 0.00 60 1015.8
20260503071547 6 339 0.0 4.8 0.00 0.00 0.00 61 1015.4